sat.trackr.live / text

‹ back to catalog

STARLINK-6371

NORAD 57381 · 2023-099BF

PAYLOAD ACTIVE UNKNOWN

§ Identity

Operator
Country
US
Launch date
2023-07-16
Launch site
AFETR
Launch vehicle
Mass (kg)
RCS (m²)

Purposes: comms

External: N2YO · Heavens-Above · Gunter

§ Orbital elements

Epoch: 2026-09-20T02:57:17.671680Z

Period
94.27 min
Inclination
43.0017°
Eccentricity
0.0001291
Mean motion
15.27569385 rev/d
Perigee alt
482.2 km
Apogee alt
484.0 km
Semi-major
6,861.2 km
B*
1.6907e-5
RAAN
205.6364°
Arg perigee
265.0335°
Mean anomaly
95.0369°
Rev number
17,688

§ Raw data

STARLINK-63711 57381U 23099BF  26263.12312120  .00000203  00000+0  16907-4 0  99992 57381  43.0017 205.6364 0001291 265.0335  95.0369 15.27569385176887

JSON: /api/v1/satellites/57381 · /tle

For live sub-satellite position, see the globe view (requires WebGL).

§ Visibility from observer

Set your observer location to see the next 7 days of passes ≥ 10°. The values pass through the URL so the page stays shareable.

No JS? Fill the form by hand. The geolocation button needs JavaScript.